Time,TemperatureF,DewpointF,PressureIn,WindDirection,WindDirectionDegrees,WindSpeedMPH,WindSpeedGustMPH,Humidity,HourlyPrecipIn,Conditions,Clouds,dailyrainin,SoftwareType,DateUTC
2013-07-19 00:05:00,59.7,49.9,29.95,North,0,1.0,3.0,70,0.00,,---,0.00,VWS V14.01,2013-07-19 07:05:00,
2013-07-19 00:10:00,59.6,50.2,29.96,North,350,4.0,4.0,71,0.00,,---,0.00,VWS V14.01,2013-07-19 07:10:00,
2013-07-19 00:15:00,59.5,50.1,29.93,North,350,3.0,5.0,71,0.00,,---,0.00,VWS V14.01,2013-07-19 07:15:00,
2013-07-19 00:20:00,59.3,50.3,29.92,North,350,2.0,5.0,72,0.00,,---,0.00,VWS V14.01,2013-07-19 07:20:00,
2013-07-19 00:25:00,59.0,50.0,29.97,North,351,4.0,6.0,72,0.00,,---,0.00,VWS V14.01,2013-07-19 07:25:00,
2013-07-19 00:30:00,58.8,50.2,29.92,North,356,4.0,4.0,73,0.00,,---,0.00,VWS V14.01,2013-07-19 07:30:00,
2013-07-19 00:35:00,58.4,49.8,29.95,NNW,343,4.0,6.0,73,0.00,,---,0.00,VWS V14.01,2013-07-19 07:35:00,
2013-07-19 00:40:00,58.2,50.0,29.93,NNW,347,2.0,6.0,74,0.00,,---,0.00,VWS V14.01,2013-07-19 07:40:00,
2013-07-19 00:45:00,57.9,49.7,29.92,NNW,345,3.0,6.0,74,0.00,,---,0.00,VWS V14.01,2013-07-19 07:45:00,
2013-07-19 00:50:00,57.6,49.8,29.91,NNW,330,3.0,6.0,75,0.00,,---,0.00,VWS V14.01,2013-07-19 07:50:00,
2013-07-19 00:55:00,57.3,49.8,29.96,North,354,4.0,6.0,76,0.00,,---,0.00,VWS V14.01,2013-07-19 07:55:00,
2013-07-19 01:00:00,57.0,49.5,29.96,NNW,340,4.0,4.0,76,0.00,,---,0.00,VWS V14.01,2013-07-19 08:00:00,
2013-07-19 01:05:00,56.5,49.4,29.95,NNW,334,1.0,6.0,77,0.00,,---,0.00,VWS V14.01,2013-07-19 08:05:00,
2013-07-19 01:10:00,56.4,49.6,29.93,NNW,335,3.0,6.0,78,0.00,,---,0.00,VWS V14.01,2013-07-19 08:10:00,
2013-07-19 01:15:00,56.3,49.5,29.92,NNW,335,1.0,6.0,78,0.00,,---,0.00,VWS V14.01,2013-07-19 08:15:00,
2013-07-19 01:20:00,56.3,49.9,29.95,NNW,335,2.0,6.0,79,0.00,,---,0.00,VWS V14.01,2013-07-19 08:20:00,
2013-07-19 01:26:00,56.1,49.7,29.92,NNW,335,3.0,6.0,79,0.00,,---,0.00,VWS V14.01,2013-07-19 08:26:00,
2013-07-19 01:31:00,56.1,49.7,29.92,NNW,335,2.0,4.0,79,0.00,,---,0.00,VWS V14.01,2013-07-19 08:31:00,
2013-07-19 01:36:00,55.9,49.5,29.94,NNW,338,0.0,5.0,79,0.00,,---,0.00,VWS V14.01,2013-07-19 08:36:00,
2013-07-19 01:41:00,55.9,49.5,29.95,NNW,344,1.0,5.0,79,0.00,,---,0.00,VWS V14.01,2013-07-19 08:41:00,
2013-07-19 01:46:00,55.8,49.7,29.95,NNW,348,0.0,6.0,80,0.00,,---,0.00,VWS V14.01,2013-07-19 08:46:00,
2013-07-19 01:51:00,55.6,49.9,29.94,North,359,2.0,7.0,81,0.00,,---,0.00,VWS V14.01,2013-07-19 08:51:00,
2013-07-19 01:56:00,55.6,49.9,29.90,North,353,2.0,7.0,81,0.00,,---,0.00,VWS V14.01,2013-07-19 08:56:00,
2013-07-19 02:01:00,55.6,49.9,29.95,NE,49,0.0,2.0,81,0.00,,---,0.00,VWS V14.01,2013-07-19 09:01:00,
2013-07-19 02:06:00,55.4,49.3,29.91,NE,47,2.0,3.0,80,0.00,,---,0.00,VWS V14.01,2013-07-19 09:06:00,
2013-07-19 02:11:00,55.5,49.8,29.93,NE,47,0.0,3.0,81,0.00,,---,0.00,VWS V14.01,2013-07-19 09:11:00,
2013-07-19 02:16:00,55.6,49.5,29.91,NE,47,1.0,3.0,80,0.00,,---,0.00,VWS V14.01,2013-07-19 09:16:00,
2013-07-19 02:21:00,55.6,49.5,29.90,NE,48,0.0,3.0,80,0.00,,---,0.00,VWS V14.01,2013-07-19 09:21:00,
2013-07-19 02:26:00,55.5,49.4,29.91,NE,47,0.0,3.0,80,0.00,,---,0.00,VWS V14.01,2013-07-19 09:26:00,
2013-07-19 02:31:00,55.5,49.4,29.93,NE,47,0.0,3.0,80,0.00,,---,0.00,VWS V14.01,2013-07-19 09:31:00,
2013-07-19 02:36:00,55.5,49.4,29.92,NE,47,2.0,3.0,80,0.00,,---,0.00,VWS V14.01,2013-07-19 09:36:00,
2013-07-19 02:41:00,55.5,49.4,29.92,NE,48,2.0,3.0,80,0.00,,---,0.00,VWS V14.01,2013-07-19 09:41:00,
2013-07-19 02:47:00,55.5,49.8,29.92,NE,48,1.0,3.0,81,0.00,,---,0.00,VWS V14.01,2013-07-19 09:47:00,
2013-07-19 02:52:00,55.4,49.7,29.93,NE,39,1.0,4.0,81,0.00,,---,0.00,VWS V14.01,2013-07-19 09:52:00,
2013-07-19 02:57:00,55.3,49.9,29.93,NE,39,2.0,4.0,82,0.00,,---,0.00,VWS V14.01,2013-07-19 09:57:00,
2013-07-19 03:02:00,55.3,49.9,29.92,NE,39,2.0,4.0,82,0.00,,---,0.00,VWS V14.01,2013-07-19 10:02:00,
2013-07-19 03:07:00,55.3,49.9,29.92,NE,38,0.0,4.0,82,0.00,,---,0.00,VWS V14.01,2013-07-19 10:07:00,
2013-07-19 03:12:00,55.2,49.8,29.91,NE,39,0.0,4.0,82,0.00,,---,0.00,VWS V14.01,2013-07-19 10:12:00,
2013-07-19 03:17:00,55.2,49.8,29.92,NE,39,2.0,4.0,82,0.00,,---,0.00,VWS V14.01,2013-07-19 10:17:00,
2013-07-19 03:22:00,55.2,49.8,29.91,NE,38,1.0,5.0,82,0.00,,---,0.00,VWS V14.01,2013-07-19 10:22:00,
2013-07-19 03:27:00,55.1,49.7,29.93,NE,39,0.0,5.0,82,0.00,,---,0.00,VWS V14.01,2013-07-19 10:27:00,
2013-07-19 03:32:00,55.3,49.9,29.91,NE,39,2.0,3.0,82,0.00,,---,0.00,VWS V14.01,2013-07-19 10:32:00,
2013-07-19 03:37:00,55.4,50.3,29.91,NE,38,1.0,3.0,83,0.00,,---,0.00,VWS V14.01,2013-07-19 10:37:00,
2013-07-19 03:42:00,55.3,50.2,29.91,NE,39,3.0,4.0,83,0.00,,---,0.00,VWS V14.01,2013-07-19 10:42:00,
2013-07-19 03:47:00,55.4,50.3,29.91,NE,39,0.0,4.0,83,0.00,,---,0.00,VWS V14.01,2013-07-19 10:47:00,
2013-07-19 03:52:00,55.3,49.9,29.92,NE,39,0.0,4.0,82,0.00,,---,0.00,VWS V14.01,2013-07-19 10:52:00,
2013-07-19 03:57:00,55.2,50.1,29.93,NE,39,0.0,4.0,83,0.00,,---,0.00,VWS V14.01,2013-07-19 10:57:00,
2013-07-19 04:03:00,55.1,49.7,29.89,NE,39,0.0,3.0,82,0.00,,---,0.00,VWS V14.01,2013-07-19 11:03:00,
2013-07-19 04:08:00,55.2,50.1,29.94,NE,38,0.0,3.0,83,0.00,,---,0.00,VWS V14.01,2013-07-19 11:08:00,
2013-07-19 04:13:00,55.2,49.8,29.91,NE,39,0.0,3.0,82,0.00,,---,0.00,VWS V14.01,2013-07-19 11:13:00,
2013-07-19 04:18:00,55.2,49.8,29.93,NE,38,0.0,3.0,82,0.00,,---,0.00,VWS V14.01,2013-07-19 11:18:00,
2013-07-19 04:23:00,55.1,49.4,29.90,NE,38,0.0,3.0,81,0.00,,---,0.00,VWS V14.01,2013-07-19 11:23:00,
2013-07-19 04:28:00,55.0,49.6,29.92,NE,39,0.0,3.0,82,0.00,,---,0.00,VWS V14.01,2013-07-19 11:28:00,
2013-07-19 04:33:00,54.9,49.5,29.94,NE,39,0.0,2.0,82,0.00,,---,0.00,VWS V14.01,2013-07-19 11:33:00,
2013-07-19 04:39:00,54.9,49.5,29.91,NE,39,0.0,2.0,82,0.00,,---,0.00,VWS V14.01,2013-07-19 11:39:00,
2013-07-19 04:44:00,54.9,49.5,29.93,NE,39,0.0,2.0,82,0.00,,---,0.00,VWS V14.01,2013-07-19 11:44:00,
2013-07-19 04:49:00,54.9,49.2,29.93,NE,39,0.0,2.0,81,0.00,,---,0.00,VWS V14.01,2013-07-19 11:49:00,
2013-07-19 04:54:00,54.7,49.0,29.92,NE,39,0.0,2.0,81,0.00,,---,0.00,VWS V14.01,2013-07-19 11:54:00,
2013-07-19 04:59:00,54.6,48.9,29.90,NE,39,0.0,2.0,81,0.00,,---,0.00,VWS V14.01,2013-07-19 11:59:00,
2013-07-19 05:04:00,54.6,48.9,29.93,NE,39,0.0,1.0,81,0.00,,---,0.00,VWS V14.01,2013-07-19 12:04:00,
2013-07-19 05:09:00,54.5,48.8,29.91,NE,38,1.0,3.0,81,0.00,,---,0.00,VWS V14.01,2013-07-19 12:09:00,
2013-07-19 05:14:00,54.5,49.1,29.91,NE,39,0.0,3.0,82,0.00,,---,0.00,VWS V14.01,2013-07-19 12:14:00,
2013-07-19 05:19:00,54.3,48.9,29.90,NE,39,1.0,3.0,82,0.00,,---,0.00,VWS V14.01,2013-07-19 12:19:00,
2013-07-19 05:24:00,54.4,49.0,29.93,NE,38,0.0,3.0,82,0.00,,---,0.00,VWS V14.01,2013-07-19 12:24:00,
2013-07-19 05:29:00,54.2,48.8,29.91,NE,39,0.0,3.0,82,0.00,,---,0.00,VWS V14.01,2013-07-19 12:29:00,
2013-07-19 05:34:00,54.2,48.8,29.91,NE,39,1.0,3.0,82,0.00,,---,0.00,VWS V14.01,2013-07-19 12:34:00,
2013-07-19 05:39:00,54.1,48.7,29.93,NE,38,0.0,3.0,82,0.00,,---,0.00,VWS V14.01,2013-07-19 12:39:00,
2013-07-19 05:44:00,53.9,48.5,29.94,NE,38,1.0,3.0,82,0.00,,---,0.00,VWS V14.01,2013-07-19 12:44:00,
2013-07-19 05:49:00,53.9,48.9,29.95,NE,39,0.0,5.0,83,0.00,,---,0.00,VWS V14.01,2013-07-19 12:49:00,
2013-07-19 05:54:00,53.9,48.9,29.91,NE,38,0.0,5.0,83,0.00,,---,0.00,VWS V14.01,2013-07-19 12:54:00,
2013-07-19 06:00:00,53.9,48.9,29.94,NE,38,0.0,5.0,83,0.00,,---,0.00,VWS V14.01,2013-07-19 13:00:00,
2013-07-19 06:05:00,53.9,48.9,29.92,NE,38,0.0,2.0,83,0.00,,---,0.00,VWS V14.01,2013-07-19 13:05:00,
2013-07-19 06:10:00,54.0,49.3,29.93,NE,38,0.0,2.0,84,0.00,,---,0.00,VWS V14.01,2013-07-19 13:10:00,
2013-07-19 06:15:00,54.0,49.3,29.94,NE,38,0.0,2.0,84,0.00,,---,0.00,VWS V14.01,2013-07-19 13:15:00,
2013-07-19 06:20:00,54.1,49.4,29.92,NE,38,0.0,2.0,84,0.00,,---,0.00,VWS V14.01,2013-07-19 13:20:00,
2013-07-19 06:25:00,54.2,49.5,29.93,NE,38,0.0,3.0,84,0.00,,---,0.00,VWS V14.01,2013-07-19 13:25:00,
2013-07-19 06:26:00,54.2,49.5,29.92,NE,38,0.0,3.0,84,0.00,,---,0.00,VWS V14.01,2013-07-19 13:26:00,
2013-07-19 06:31:00,54.2,49.8,29.92,NE,38,0.0,0.0,85,0.00,,---,0.00,VWS V14.01,2013-07-19 13:31:00,
2013-07-19 06:36:00,54.3,49.9,29.95,NE,38,0.0,3.0,85,0.00,,---,0.00,VWS V14.01,2013-07-19 13:36:00,
2013-07-19 06:41:00,54.4,50.0,29.96,NE,38,0.0,3.0,85,0.00,,---,0.00,VWS V14.01,2013-07-19 13:41:00,
2013-07-19 06:46:00,54.3,49.9,29.95,NE,38,0.0,3.0,85,0.00,,---,0.00,VWS V14.01,2013-07-19 13:46:00,
2013-07-19 06:51:00,54.3,49.9,29.91,NE,39,0.0,3.0,85,0.00,,---,0.00,VWS V14.01,2013-07-19 13:51:00,
2013-07-19 06:56:00,54.3,49.9,29.93,NE,39,0.0,3.0,85,0.00,,---,0.00,VWS V14.01,2013-07-19 13:56:00,
2013-07-19 07:01:00,54.4,50.0,29.93,NE,38,0.0,0.0,85,0.00,,---,0.00,VWS V14.01,2013-07-19 14:01:00,
2013-07-19 07:06:00,54.5,50.4,29.91,NE,38,2.0,2.0,86,0.00,,---,0.00,VWS V14.01,2013-07-19 14:06:00,
2013-07-19 07:11:00,54.7,50.6,29.94,NE,38,0.0,3.0,86,0.00,,---,0.00,VWS V14.01,2013-07-19 14:11:00,
2013-07-19 07:17:00,55.0,50.9,29.94,NE,38,3.0,4.0,86,0.00,,---,0.00,VWS V14.01,2013-07-19 14:17:00,
2013-07-19 07:22:00,55.1,51.0,29.91,NE,38,3.0,4.0,86,0.00,,---,0.00,VWS V14.01,2013-07-19 14:22:00,
2013-07-19 07:27:00,55.2,51.1,29.94,NE,38,1.0,4.0,86,0.00,,---,0.00,VWS V14.01,2013-07-19 14:27:00,
2013-07-19 07:32:00,55.5,51.7,29.95,NE,38,0.0,6.0,87,0.00,,---,0.00,VWS V14.01,2013-07-19 14:32:00,
2013-07-19 07:37:00,55.9,52.1,29.94,NE,38,2.0,6.0,87,0.00,,---,0.00,VWS V14.01,2013-07-19 14:37:00,
2013-07-19 07:42:00,56.3,52.5,29.92,NE,39,0.0,6.0,87,0.00,,---,0.00,VWS V14.01,2013-07-19 14:42:00,
2013-07-19 07:47:00,56.6,52.2,29.91,NE,38,0.0,6.0,85,0.00,,---,0.00,VWS V14.01,2013-07-19 14:47:00,
2013-07-19 07:52:00,56.9,52.8,29.93,NE,39,1.0,6.0,86,0.00,,---,0.00,VWS V14.01,2013-07-19 14:52:00,
2013-07-19 07:57:00,57.0,52.2,29.94,NE,38,2.0,6.0,84,0.00,,---,0.00,VWS V14.01,2013-07-19 14:57:00,
2013-07-19 08:02:00,57.3,52.2,29.95,NE,38,0.0,2.0,83,0.00,,---,0.00,VWS V14.01,2013-07-19 15:02:00,
2013-07-19 08:07:00,57.6,52.5,29.91,NE,39,1.0,6.0,83,0.00,,---,0.00,VWS V14.01,2013-07-19 15:07:00,
2013-07-19 08:12:00,57.9,52.8,29.93,NE,39,0.0,6.0,83,0.00,,---,0.00,VWS V14.01,2013-07-19 15:12:00,
2013-07-19 08:17:00,58.1,52.6,29.93,NE,39,0.0,6.0,82,0.00,,---,0.00,VWS V14.01,2013-07-19 15:17:00,
2013-07-19 08:22:00,58.5,52.7,29.93,NE,39,1.0,6.0,81,0.00,,---,0.00,VWS V14.01,2013-07-19 15:22:00,
2013-07-19 08:27:00,58.6,52.8,29.93,NE,39,0.0,6.0,81,0.00,,---,0.00,VWS V14.01,2013-07-19 15:27:00,
2013-07-19 08:32:00,58.9,52.8,29.93,NE,39,0.0,2.0,80,0.00,,---,0.00,VWS V14.01,2013-07-19 15:32:00,
2013-07-19 08:37:00,59.3,53.1,29.91,NE,39,0.0,3.0,80,0.00,,---,0.00,VWS V14.01,2013-07-19 15:37:00,
2013-07-19 08:43:00,59.6,53.8,29.95,NE,39,0.0,3.0,81,0.00,,---,0.00,VWS V14.01,2013-07-19 15:43:00,
2013-07-19 08:48:00,59.9,53.7,29.93,NE,39,0.0,4.0,80,0.00,,---,0.00,VWS V14.01,2013-07-19 15:48:00,
2013-07-19 08:53:00,60.2,53.3,29.93,NE,39,1.0,4.0,78,0.00,,---,0.00,VWS V14.01,2013-07-19 15:53:00,
2013-07-19 08:58:00,60.5,54.0,29.91,NE,39,0.0,4.0,79,0.00,,---,0.00,VWS V14.01,2013-07-19 15:58:00,
2013-07-19 09:03:00,60.8,53.2,29.93,NE,39,0.0,1.0,76,0.00,,---,0.00,VWS V14.01,2013-07-19 16:03:00,
2013-07-19 09:08:00,61.3,53.7,29.92,NE,39,0.0,1.0,76,0.00,,---,0.00,VWS V14.01,2013-07-19 16:08:00,
2013-07-19 09:13:00,61.9,54.3,29.92,NE,39,0.0,4.0,76,0.00,,---,0.00,VWS V14.01,2013-07-19 16:13:00,
2013-07-19 09:18:00,62.4,54.0,29.94,NE,39,0.0,4.0,74,0.00,,---,0.00,VWS V14.01,2013-07-19 16:18:00,
2013-07-19 09:23:00,62.8,53.7,29.94,NE,39,0.0,4.0,72,0.00,,---,0.00,VWS V14.01,2013-07-19 16:23:00,
2013-07-19 09:28:00,63.0,53.5,29.93,NE,39,0.0,4.0,71,0.00,,---,0.00,VWS V14.01,2013-07-19 16:28:00,
2013-07-19 09:33:00,63.2,54.0,29.92,NE,39,0.0,2.0,72,0.00,,---,0.00,VWS V14.01,2013-07-19 16:33:00,
2013-07-19 09:38:00,63.7,54.1,29.93,NE,39,3.0,4.0,71,0.00,,---,0.00,VWS V14.01,2013-07-19 16:38:00,
2013-07-19 09:43:00,64.3,55.1,29.93,NE,39,1.0,4.0,72,0.00,,---,0.00,VWS V14.01,2013-07-19 16:43:00,
2013-07-19 09:48:00,64.8,54.8,29.92,NE,39,2.0,4.0,70,0.00,,---,0.00,VWS V14.01,2013-07-19 16:48:00,
2013-07-19 09:54:00,65.2,55.2,29.90,NE,39,2.0,4.0,70,0.00,,---,0.00,VWS V14.01,2013-07-19 16:54:00,
2013-07-19 09:59:00,65.7,55.7,29.94,NNW,334,0.0,4.0,70,0.00,,---,0.00,VWS V14.01,2013-07-19 16:59:00,
2013-07-19 10:04:00,66.1,55.2,29.93,NNW,334,1.0,3.0,68,0.00,,---,0.00,VWS V14.01,2013-07-19 17:04:00,
2013-07-19 10:09:00,66.7,56.2,29.93,NNW,334,3.0,4.0,69,0.00,,---,0.00,VWS V14.01,2013-07-19 17:09:00,
2013-07-19 10:14:00,67.4,55.7,29.91,NNW,334,2.0,4.0,66,0.00,,---,0.00,VWS V14.01,2013-07-19 17:14:00,
2013-07-19 10:19:00,67.6,56.3,29.90,NNW,334,1.0,4.0,67,0.00,,---,0.00,VWS V14.01,2013-07-19 17:19:00,
2013-07-19 10:24:00,68.2,56.0,29.92,NNW,333,0.0,4.0,65,0.00,,---,0.00,VWS V14.01,2013-07-19 17:24:00,
2013-07-19 10:29:00,68.7,56.0,29.92,NNW,345,4.0,7.0,64,0.00,,---,0.00,VWS V14.01,2013-07-19 17:29:00,
2013-07-19 10:34:00,69.1,56.4,29.93,NNW,339,4.0,6.0,64,0.00,,---,0.00,VWS V14.01,2013-07-19 17:34:00,
2013-07-19 10:39:00,69.3,55.7,29.92,NNW,329,3.0,6.0,62,0.00,,---,0.00,VWS V14.01,2013-07-19 17:39:00,
2013-07-19 10:44:00,69.7,55.7,29.95,North,359,2.0,7.0,61,0.00,,---,0.00,VWS V14.01,2013-07-19 17:44:00,
2013-07-19 10:49:00,70.0,56.0,29.91,NNW,342,2.0,7.0,61,0.00,,---,0.00,VWS V14.01,2013-07-19 17:49:00,
2013-07-19 10:54:00,70.1,56.0,29.92,NNW,347,1.0,7.0,61,0.00,,---,0.00,VWS V14.01,2013-07-19 17:54:00,
2013-07-19 11:00:00,70.5,56.4,29.92,North,349,2.0,7.0,61,0.00,,---,0.00,VWS V14.01,2013-07-19 18:00:00,
2013-07-19 11:05:00,71.1,56.5,29.90,North,358,2.0,4.0,60,0.00,,---,0.00,VWS V14.01,2013-07-19 18:05:00,
2013-07-19 11:10:00,71.4,55.9,29.92,North,358,2.0,4.0,58,0.00,,---,0.00,VWS V14.01,2013-07-19 18:10:00,
2013-07-19 11:15:00,71.9,56.3,29.91,North,0,1.0,7.0,58,0.00,,---,0.00,VWS V14.01,2013-07-19 18:15:00,
2013-07-19 11:20:00,72.5,56.9,29.90,North,357,1.0,7.0,58,0.00,,---,0.00,VWS V14.01,2013-07-19 18:20:00,
2013-07-19 11:25:00,73.1,55.5,29.91,North,355,4.0,7.0,54,0.00,,---,0.00,VWS V14.01,2013-07-19 18:25:00,
2013-07-19 11:30:00,73.6,55.4,29.93,North,354,2.0,3.0,53,0.00,,---,0.00,VWS V14.01,2013-07-19 18:30:00,
2013-07-19 11:35:00,74.2,56.0,29.91,NW,311,2.0,5.0,53,0.00,,---,0.00,VWS V14.01,2013-07-19 18:35:00,
2013-07-19 11:40:00,74.8,56.0,29.91,West,278,7.0,7.0,52,0.00,,---,0.00,VWS V14.01,2013-07-19 18:40:00,
2013-07-19 11:45:00,75.3,57.0,29.88,West,274,1.0,7.0,53,0.00,,---,0.00,VWS V14.01,2013-07-19 18:45:00,
2013-07-19 11:50:00,75.7,56.3,29.91,WSW,240,3.0,7.0,51,0.00,,---,0.00,VWS V14.01,2013-07-19 18:50:00,
2013-07-19 11:55:00,75.9,56.5,29.90,NW,304,2.0,7.0,51,0.00,,---,0.00,VWS V14.01,2013-07-19 18:55:00,
2013-07-19 12:01:00,76.5,57.0,29.89,WSW,250,3.0,6.0,51,0.00,,---,0.00,VWS V14.01,2013-07-19 19:01:00,
2013-07-19 12:06:00,76.9,58.0,29.89,WSW,257,1.0,6.0,52,0.00,,---,0.00,VWS V14.01,2013-07-19 19:06:00,
2013-07-19 12:11:00,77.4,56.8,29.92,West,266,1.0,6.0,49,0.00,,---,0.00,VWS V14.01,2013-07-19 19:11:00,
2013-07-19 12:16:00,77.6,56.4,29.91,North,359,2.0,7.0,48,0.00,,---,0.00,VWS V14.01,2013-07-19 19:16:00,
2013-07-19 12:21:00,78.0,57.3,29.90,NNW,334,3.0,7.0,49,0.00,,---,0.00,VWS V14.01,2013-07-19 19:21:00,
2013-07-19 12:26:00,78.4,56.5,29.91,West,263,2.0,7.0,47,0.00,,---,0.00,VWS V14.01,2013-07-19 19:26:00,
2013-07-19 12:31:00,78.7,56.8,29.90,North,10,3.0,6.0,47,0.00,,---,0.00,VWS V14.01,2013-07-19 19:31:00,
2013-07-19 12:36:00,78.9,56.4,29.91,NNW,338,6.0,7.0,46,0.00,,---,0.00,VWS V14.01,2013-07-19 19:36:00,
2013-07-19 12:41:00,79.2,56.7,29.89,NNW,344,1.0,7.0,46,0.00,,---,0.00,VWS V14.01,2013-07-19 19:41:00,
2013-07-19 12:46:00,79.6,55.8,29.90,NNW,330,3.0,7.0,44,0.00,,---,0.00,VWS V14.01,2013-07-19 19:46:00,
2013-07-19 12:51:00,80.1,56.9,29.90,NNW,332,3.0,7.0,45,0.00,,---,0.00,VWS V14.01,2013-07-19 19:51:00,
2013-07-19 12:56:00,80.3,56.4,29.90,NNW,335,4.0,7.0,44,0.00,,---,0.00,VWS V14.01,2013-07-19 19:56:00,
2013-07-19 13:01:00,80.5,56.6,29.88,NNW,333,4.0,7.0,44,0.00,,---,0.00,VWS V14.01,2013-07-19 20:01:00,
2013-07-19 13:06:00,80.9,57.0,29.88,WNW,293,4.0,7.0,44,0.00,,---,0.00,VWS V14.01,2013-07-19 20:06:00,
2013-07-19 13:12:00,81.0,57.1,29.89,NNW,339,4.0,7.0,44,0.00,,---,0.00,VWS V14.01,2013-07-19 20:12:00,
2013-07-19 13:17:00,81.7,57.0,29.89,WNW,289,2.0,7.0,43,0.00,,---,0.00,VWS V14.01,2013-07-19 20:17:00,
2013-07-19 13:22:00,82.2,56.8,29.90,WNW,288,1.0,7.0,42,0.00,,---,0.00,VWS V14.01,2013-07-19 20:22:00,
2013-07-19 13:27:00,82.9,57.5,29.88,NW,315,1.0,7.0,42,0.00,,---,0.00,VWS V14.01,2013-07-19 20:27:00,
2013-07-19 13:32:00,83.2,56.4,29.88,North,357,2.0,6.0,40,0.00,,---,0.00,VWS V14.01,2013-07-19 20:32:00,
2013-07-19 13:37:00,83.6,57.4,29.87,NW,313,0.0,6.0,41,0.00,,---,0.00,VWS V14.01,2013-07-19 20:37:00,
2013-07-19 13:42:00,83.7,56.1,29.88,NNW,343,1.0,6.0,39,0.00,,---,0.00,VWS V14.01,2013-07-19 20:42:00,
2013-07-19 13:47:00,84.0,55.7,29.86,WNW,302,3.0,6.0,38,0.00,,---,0.00,VWS V14.01,2013-07-19 20:47:00,
2013-07-19 13:52:00,84.2,55.1,29.86,NNW,346,6.0,8.0,37,0.00,,---,0.00,VWS V14.01,2013-07-19 20:52:00,
2013-07-19 13:57:00,84.6,56.9,29.87,North,357,5.0,8.0,39,0.00,,---,0.00,VWS V14.01,2013-07-19 20:57:00,
2013-07-19 14:02:00,84.8,54.1,29.88,NW,326,3.0,6.0,35,0.00,,---,0.00,VWS V14.01,2013-07-19 21:02:00,
2013-07-19 14:07:00,84.9,55.0,29.88,WNW,302,2.0,6.0,36,0.00,,---,0.00,VWS V14.01,2013-07-19 21:07:00,
2013-07-19 14:13:00,85.4,55.4,29.86,NNW,336,5.0,7.0,36,0.00,,---,0.00,VWS V14.01,2013-07-19 21:13:00,
2013-07-19 14:18:00,85.6,56.4,29.85,North,5,5.0,8.0,37,0.00,,---,0.00,VWS V14.01,2013-07-19 21:18:00,
2013-07-19 14:23:00,86.0,55.2,29.85,NW,319,5.0,8.0,35,0.00,,---,0.00,VWS V14.01,2013-07-19 21:23:00,
2013-07-19 14:28:00,86.4,55.5,29.85,WNW,282,2.0,8.0,35,0.00,,---,0.00,VWS V14.01,2013-07-19 21:28:00,
2013-07-19 14:33:00,86.8,56.7,29.86,NW,309,2.0,8.0,36,0.00,,---,0.00,VWS V14.01,2013-07-19 21:33:00,
2013-07-19 14:38:00,86.8,55.9,29.87,NNW,327,1.0,8.0,35,0.00,,---,0.00,VWS V14.01,2013-07-19 21:38:00,
2013-07-19 14:43:00,87.2,56.2,29.87,North,8,3.0,8.0,35,0.00,,---,0.00,VWS V14.01,2013-07-19 21:43:00,
2013-07-19 14:48:00,87.5,56.5,29.86,North,359,2.0,8.0,35,0.00,,---,0.00,VWS V14.01,2013-07-19 21:48:00,
2013-07-19 14:53:00,87.7,56.7,29.88,NNW,344,0.0,8.0,35,0.00,,---,0.00,VWS V14.01,2013-07-19 21:53:00,
2013-07-19 14:58:00,87.8,56.8,29.85,NNW,333,2.0,8.0,35,0.00,,---,0.00,VWS V14.01,2013-07-19 21:58:00,
2013-07-19 15:03:00,88.2,56.3,29.87,NNW,343,5.0,7.0,34,0.00,,---,0.00,VWS V14.01,2013-07-19 22:03:00,
2013-07-19 15:08:00,88.1,56.2,29.86,North,351,2.0,8.0,34,0.00,,---,0.00,VWS V14.01,2013-07-19 22:08:00,
2013-07-19 15:13:00,88.4,55.7,29.84,NNE,18,4.0,8.0,33,0.00,,---,0.00,VWS V14.01,2013-07-19 22:13:00,
2013-07-19 15:14:00,88.6,55.8,29.82,NNW,331,1.0,8.0,33,0.00,,---,0.00,VWS V14.01,2013-07-19 22:14:00,
2013-07-19 15:19:00,88.5,55.8,29.83,NW,316,2.0,8.0,33,0.00,,---,0.00,VWS V14.01,2013-07-19 22:19:00,
2013-07-19 15:24:00,88.6,55.8,29.85,NNW,340,2.0,8.0,33,0.00,,---,0.00,VWS V14.01,2013-07-19 22:24:00,
2013-07-19 15:29:00,88.4,55.7,29.84,WSW,256,3.0,9.0,33,0.00,,---,0.00,VWS V14.01,2013-07-19 22:29:00,
2013-07-19 15:34:00,88.5,54.9,29.82,NNW,348,2.0,9.0,32,0.00,,---,0.00,VWS V14.01,2013-07-19 22:34:00,
2013-07-19 15:39:00,88.4,55.7,29.84,NNW,328,2.0,9.0,33,0.00,,---,0.00,VWS V14.01,2013-07-19 22:39:00,
2013-07-19 15:44:00,88.5,55.8,29.84,ENE,59,1.0,9.0,33,0.00,,---,0.00,VWS V14.01,2013-07-19 22:44:00,
2013-07-19 15:49:00,88.5,54.9,29.84,NW,323,2.0,9.0,32,0.00,,---,0.00,VWS V14.01,2013-07-19 22:49:00,
2013-07-19 15:55:00,88.7,55.9,29.84,NW,312,6.0,9.0,33,0.00,,---,0.00,VWS V14.01,2013-07-19 22:55:00,
2013-07-19 16:00:00,88.7,55.1,29.83,NW,322,3.0,9.0,32,0.00,,---,0.00,VWS V14.01,2013-07-19 23:00:00,
2013-07-19 16:05:00,88.7,55.1,29.82,WNW,289,1.0,8.0,32,0.00,,---,0.00,VWS V14.01,2013-07-19 23:05:00,
2013-07-19 16:10:00,88.6,54.1,29.82,NW,313,1.0,8.0,31,0.00,,---,0.00,VWS V14.01,2013-07-19 23:10:00,
2013-07-19 16:15:00,88.6,55.0,29.84,NW,304,5.0,8.0,32,0.00,,---,0.00,VWS V14.01,2013-07-19 23:15:00,
2013-07-19 16:20:00,88.8,54.3,29.84,WNW,298,4.0,8.0,31,0.00,,---,0.00,VWS V14.01,2013-07-19 23:20:00,
2013-07-19 16:25:00,88.9,54.4,29.83,SW,222,2.0,9.0,31,0.00,,---,0.00,VWS V14.01,2013-07-19 23:25:00,
2013-07-19 16:30:00,88.9,53.5,29.82,WSW,242,4.0,5.0,30,0.00,,---,0.00,VWS V14.01,2013-07-19 23:30:00,
2013-07-19 16:35:00,88.9,51.6,29.83,SW,230,2.0,8.0,28,0.00,,---,0.00,VWS V14.01,2013-07-19 23:35:00,
2013-07-19 16:40:00,88.9,52.6,29.84,WSW,251,3.0,8.0,29,0.00,,---,0.00,VWS V14.01,2013-07-19 23:40:00,
2013-07-19 16:45:00,89.1,54.6,29.83,West,267,2.0,8.0,31,0.00,,---,0.00,VWS V14.01,2013-07-19 23:45:00,
2013-07-19 16:50:00,89.3,52.9,29.83,WSW,242,1.0,8.0,29,0.00,,---,0.00,VWS V14.01,2013-07-19 23:50:00,
2013-07-19 16:55:00,89.3,51.0,29.83,West,263,3.0,8.0,27,0.00,,---,0.00,VWS V14.01,2013-07-19 23:55:00,
2013-07-19 17:00:00,89.3,52.9,29.83,North,1,1.0,6.0,29,0.00,,---,0.00,VWS V14.01,2013-07-20 00:00:00,
2013-07-19 17:05:00,89.3,53.8,29.83,West,274,4.0,7.0,30,0.00,,---,0.00,VWS V14.01,2013-07-20 00:05:00,
2013-07-19 17:10:00,89.3,53.8,29.83,SW,225,4.0,8.0,30,0.00,,---,0.00,VWS V14.01,2013-07-20 00:10:00,
2013-07-19 17:16:00,89.0,54.5,29.82,North,356,4.0,8.0,31,0.00,,---,0.00,VWS V14.01,2013-07-20 00:16:00,
2013-07-19 17:21:00,88.9,52.6,29.82,NW,317,1.0,8.0,29,0.00,,---,0.00,VWS V14.01,2013-07-20 00:21:00,
2013-07-19 17:26:00,88.7,53.3,29.80,NNW,340,5.0,8.0,30,0.00,,---,0.00,VWS V14.01,2013-07-20 00:26:00,
2013-07-19 17:31:00,88.6,53.2,29.82,WNW,287,8.0,8.0,30,0.00,,---,0.00,VWS V14.01,2013-07-20 00:31:00,
2013-07-19 17:36:00,88.5,53.1,29.81,NNW,334,5.0,8.0,30,0.00,,---,0.00,VWS V14.01,2013-07-20 00:36:00,
2013-07-19 17:41:00,88.0,52.7,29.80,NNW,327,3.0,8.0,30,0.00,,---,0.00,VWS V14.01,2013-07-20 00:41:00,
2013-07-19 17:46:00,87.6,53.3,29.81,WNW,289,2.0,8.0,31,0.00,,---,0.00,VWS V14.01,2013-07-20 00:46:00,
2013-07-19 17:51:00,87.6,53.3,29.81,NW,326,3.0,8.0,31,0.00,,---,0.00,VWS V14.01,2013-07-20 00:51:00,
2013-07-19 17:56:00,87.6,54.1,29.80,NNW,329,3.0,8.0,32,0.00,,---,0.00,VWS V14.01,2013-07-20 00:56:00,
2013-07-19 18:01:00,87.4,54.0,29.83,NNW,329,6.0,8.0,32,0.00,,---,0.00,VWS V14.01,2013-07-20 01:01:00,
2013-07-19 18:06:00,87.3,53.9,29.82,WNW,302,4.0,8.0,32,0.00,,---,0.00,VWS V14.01,2013-07-20 01:06:00,
2013-07-19 18:11:00,86.9,53.5,29.80,NNW,327,5.0,8.0,32,0.00,,---,0.00,VWS V14.01,2013-07-20 01:11:00,
2013-07-19 18:13:00,86.8,54.3,29.81,North,358,2.0,8.0,33,0.00,,---,0.00,VWS V14.01,2013-07-20 01:13:00,
2013-07-19 18:18:00,86.8,54.3,29.81,NNW,343,3.0,8.0,33,0.00,,---,0.00,VWS V14.01,2013-07-20 01:18:00,
2013-07-19 18:23:00,86.7,55.0,29.81,WNW,283,2.0,8.0,34,0.00,,---,0.00,VWS V14.01,2013-07-20 01:23:00,
2013-07-19 18:28:00,85.9,53.5,29.81,North,11,4.0,8.0,33,0.00,,---,0.00,VWS V14.01,2013-07-20 01:28:00,
2013-07-19 18:33:00,85.5,54.0,29.80,North,0,2.0,8.0,34,0.00,,---,0.00,VWS V14.01,2013-07-20 01:33:00,
2013-07-19 18:39:00,85.2,52.9,29.80,NNW,348,3.0,8.0,33,0.00,,---,0.00,VWS V14.01,2013-07-20 01:39:00,
2013-07-19 18:44:00,84.4,53.0,29.81,North,7,5.0,9.0,34,0.00,,---,0.00,VWS V14.01,2013-07-20 01:44:00,
2013-07-19 18:49:00,83.6,53.8,29.81,North,358,5.0,10.0,36,0.00,,---,0.00,VWS V14.01,2013-07-20 01:49:00,
2013-07-19 18:54:00,83.1,53.4,29.80,North,357,3.0,10.0,36,0.00,,---,0.00,VWS V14.01,2013-07-20 01:54:00,
2013-07-19 18:59:00,82.2,54.1,29.81,NW,318,1.0,10.0,38,0.00,,---,0.00,VWS V14.01,2013-07-20 01:59:00,
2013-07-19 19:04:00,81.5,54.2,29.79,WSW,254,2.0,6.0,39,0.00,,---,0.00,VWS V14.01,2013-07-20 02:04:00,
2013-07-19 19:09:00,80.7,52.8,29.80,NNW,345,2.0,8.0,38,0.00,,---,0.00,VWS V14.01,2013-07-20 02:09:00,
2013-07-19 19:14:00,79.9,52.8,29.82,NNW,339,3.0,8.0,39,0.00,,---,0.00,VWS V14.01,2013-07-20 02:14:00,
2013-07-19 19:19:00,79.4,52.3,29.81,North,350,2.0,8.0,39,0.00,,---,0.00,VWS V14.01,2013-07-20 02:19:00,
2013-07-19 19:24:00,78.5,52.9,29.81,North,9,6.0,9.0,41,0.00,,---,0.00,VWS V14.01,2013-07-20 02:24:00,
2013-07-19 19:29:00,78.0,53.1,29.82,North,352,8.0,11.0,42,0.00,,---,0.00,VWS V14.01,2013-07-20 02:29:00,
2013-07-19 19:34:00,77.1,52.9,29.79,NNW,340,4.0,11.0,43,0.00,,---,0.00,VWS V14.01,2013-07-20 02:34:00,
2013-07-19 19:39:00,76.5,53.6,29.81,NNW,343,4.0,11.0,45,0.00,,---,0.00,VWS V14.01,2013-07-20 02:39:00,
2013-07-19 19:44:00,75.8,53.6,29.82,NNE,12,8.0,11.0,46,0.00,,---,0.00,VWS V14.01,2013-07-20 02:44:00,
2013-07-19 19:49:00,75.1,53.5,29.84,NW,321,2.0,11.0,47,0.00,,---,0.00,VWS V14.01,2013-07-20 02:49:00,
2013-07-19 19:54:00,74.3,53.4,29.84,North,350,6.0,11.0,48,0.00,,---,0.00,VWS V14.01,2013-07-20 02:54:00,
2013-07-19 19:59:00,73.6,52.7,29.84,NW,324,3.0,13.0,48,0.00,,---,0.00,VWS V14.01,2013-07-20 02:59:00,
2013-07-19 20:05:00,73.1,52.3,29.82,NNW,332,4.0,11.0,48,0.00,,---,0.00,VWS V14.01,2013-07-20 03:05:00,
2013-07-19 20:10:00,72.7,51.9,29.84,NNW,336,6.0,11.0,48,0.00,,---,0.00,VWS V14.01,2013-07-20 03:10:00,
2013-07-19 20:15:00,72.4,51.6,29.83,North,349,5.0,11.0,48,0.00,,---,0.00,VWS V14.01,2013-07-20 03:15:00,
2013-07-19 20:20:00,71.8,51.6,29.83,NW,315,4.0,11.0,49,0.00,,---,0.00,VWS V14.01,2013-07-20 03:20:00,
2013-07-19 20:25:00,71.3,52.3,29.84,WNW,300,3.0,13.0,51,0.00,,---,0.00,VWS V14.01,2013-07-20 03:25:00,
2013-07-19 20:30:00,70.7,52.2,29.82,North,350,6.0,6.0,52,0.00,,---,0.00,VWS V14.01,2013-07-20 03:30:00,
2013-07-19 20:35:00,70.1,52.2,29.83,NW,313,0.0,8.0,53,0.00,,---,0.00,VWS V14.01,2013-07-20 03:35:00,
2013-07-19 20:40:00,69.7,52.3,29.84,NNW,335,3.0,8.0,54,0.00,,---,0.00,VWS V14.01,2013-07-20 03:40:00,
2013-07-19 20:45:00,69.1,52.3,29.82,North,356,5.0,8.0,55,0.00,,---,0.00,VWS V14.01,2013-07-20 03:45:00,
2013-07-19 20:50:00,68.7,51.9,29.83,NNE,16,5.0,8.0,55,0.00,,---,0.00,VWS V14.01,2013-07-20 03:50:00,
2013-07-19 20:55:00,68.3,51.5,29.85,NNW,332,5.0,8.0,55,0.00,,---,0.00,VWS V14.01,2013-07-20 03:55:00,
2013-07-19 21:00:00,68.1,51.8,29.84,North,350,4.0,5.0,56,0.00,,---,0.00,VWS V14.01,2013-07-20 04:00:00,
2013-07-19 21:01:00,68.0,51.7,29.83,NNE,12,5.0,5.0,56,0.00,,---,0.00,VWS V14.01,2013-07-20 04:01:00,
2013-07-19 21:02:00,67.9,51.6,29.83,North,350,2.0,5.0,56,0.00,,---,0.00,VWS V14.01,2013-07-20 04:02:00,
2013-07-19 21:03:00,67.9,52.1,29.84,North,354,5.0,6.0,57,0.00,,---,0.00,VWS V14.01,2013-07-20 04:03:00,
2013-07-19 21:08:00,67.4,51.7,29.87,NNW,328,5.0,9.0,57,0.00,,---,0.00,VWS V14.01,2013-07-20 04:08:00,
2013-07-19 21:13:00,67.0,51.3,29.86,North,359,2.0,9.0,57,0.00,,---,0.00,VWS V14.01,2013-07-20 04:13:00,
2013-07-19 21:18:00,66.5,51.3,29.84,NNW,344,3.0,9.0,58,0.00,,---,0.00,VWS V14.01,2013-07-20 04:18:00,
2013-07-19 21:23:00,66.3,51.1,29.85,North,355,1.0,9.0,58,0.00,,---,0.00,VWS V14.01,2013-07-20 04:23:00,
2013-07-19 21:29:00,66.0,51.3,29.85,North,356,3.0,9.0,59,0.00,,---,0.00,VWS V14.01,2013-07-20 04:29:00,
2013-07-19 21:34:00,65.7,51.5,29.85,NNW,341,4.0,6.0,60,0.00,,---,0.00,VWS V14.01,2013-07-20 04:34:00,
2013-07-19 21:39:00,65.5,51.3,29.84,NNW,336,3.0,6.0,60,0.00,,---,0.00,VWS V14.01,2013-07-20 04:39:00,
2013-07-19 21:44:00,65.2,51.0,29.87,NNW,341,2.0,6.0,60,0.00,,---,0.00,VWS V14.01,2013-07-20 04:44:00,
2013-07-19 21:49:00,65.2,51.4,29.87,NNW,342,1.0,6.0,61,0.00,,---,0.00,VWS V14.01,2013-07-20 04:49:00,
2013-07-19 21:54:00,64.9,51.2,29.84,North,1,3.0,7.0,61,0.00,,---,0.00,VWS V14.01,2013-07-20 04:54:00,
2013-07-19 21:59:00,64.8,51.5,29.85,North,1,2.0,7.0,62,0.00,,---,0.00,VWS V14.01,2013-07-20 04:59:00,
2013-07-19 22:04:00,64.7,51.4,29.87,North,3,0.0,6.0,62,0.00,,---,0.00,VWS V14.01,2013-07-20 05:04:00,
2013-07-19 22:09:00,64.6,51.3,29.86,North,3,0.0,6.0,62,0.00,,---,0.00,VWS V14.01,2013-07-20 05:09:00,
2013-07-19 22:14:00,64.3,51.5,29.87,North,3,0.0,6.0,63,0.00,,---,0.00,VWS V14.01,2013-07-20 05:14:00,
2013-07-19 22:19:00,64.2,51.8,29.85,North,3,2.0,6.0,64,0.00,,---,0.00,VWS V14.01,2013-07-20 05:19:00,
2013-07-19 22:24:00,63.8,51.8,29.89,North,3,0.0,6.0,65,0.00,,---,0.00,VWS V14.01,2013-07-20 05:24:00,
2013-07-19 22:29:00,63.4,51.4,29.85,North,11,1.0,6.0,65,0.00,,---,0.00,VWS V14.01,2013-07-20 05:29:00,
2013-07-19 22:34:00,63.3,51.3,29.87,North,11,0.0,3.0,65,0.00,,---,0.00,VWS V14.01,2013-07-20 05:34:00,
2013-07-19 22:39:00,63.0,51.5,29.84,NNE,12,1.0,5.0,66,0.00,,---,0.00,VWS V14.01,2013-07-20 05:39:00,
2013-07-19 22:45:00,62.7,51.2,29.88,North,11,4.0,5.0,66,0.00,,---,0.00,VWS V14.01,2013-07-20 05:45:00,
2013-07-19 22:50:00,62.5,51.4,29.86,North,4,3.0,5.0,67,0.00,,---,0.00,VWS V14.01,2013-07-20 05:50:00,
2013-07-19 22:55:00,62.2,51.5,29.88,North,4,3.0,5.0,68,0.00,,---,0.00,VWS V14.01,2013-07-20 05:55:00,
2013-07-19 23:00:00,62.0,51.3,29.84,North,4,0.0,0.0,68,0.00,,---,0.00,VWS V14.01,2013-07-20 06:00:00,
2013-07-19 23:05:00,61.8,51.1,29.87,North,4,1.0,3.0,68,0.00,,---,0.00,VWS V14.01,2013-07-20 06:05:00,
2013-07-19 23:10:00,61.9,51.2,29.87,North,4,1.0,3.0,68,0.00,,---,0.00,VWS V14.01,2013-07-20 06:10:00,
2013-07-19 23:15:00,61.7,51.0,29.85,North,4,1.0,3.0,68,0.00,,---,0.00,VWS V14.01,2013-07-20 06:15:00,
2013-07-19 23:20:00,61.4,50.8,29.85,North,4,0.0,4.0,68,0.00,,---,0.00,VWS V14.01,2013-07-20 06:20:00,
2013-07-19 23:25:00,61.2,51.0,29.84,North,4,3.0,5.0,69,0.00,,---,0.00,VWS V14.01,2013-07-20 06:25:00,
2013-07-19 23:30:00,60.8,51.0,29.83,North,359,3.0,3.0,70,0.00,,---,0.00,VWS V14.01,2013-07-20 06:30:00,
2013-07-19 23:35:00,60.4,51.3,29.84,North,358,1.0,5.0,72,0.00,,---,0.00,VWS V14.01,2013-07-20 06:35:00,
2013-07-19 23:40:00,60.1,50.7,29.86,North,359,1.0,6.0,71,0.00,,---,0.00,VWS V14.01,2013-07-20 06:40:00,
2013-07-19 23:45:00,59.7,50.3,29.86,North,0,1.0,6.0,71,0.00,,---,0.00,VWS V14.01,2013-07-20 06:45:00,
2013-07-19 23:50:00,59.7,50.7,29.86,North,0,0.0,6.0,72,0.00,,---,0.00,VWS V14.01,2013-07-20 06:50:00,
2013-07-19 23:55:00,59.5,50.8,29.86,North,0,2.0,6.0,73,0.00,,---,0.00,VWS V14.01,2013-07-20 06:55:00,